Wetbulb
58.53 57.52 55.08 50.85 40.24 36.81 33.14 38.96 45.39 44.94 44.59 51.02 52.16 51.87 49.48 49.77 54.59 52.01 67.37 69.81 70.31 70.30 71.83 72.15 72.24 73.18 73.66 73.67 73.23 73.30 73.87 74.18 74.26 74.22 74.28 74.29 74.27 74.18 73.91 73.76 73.92 74.57 75.09 74.62 73.82 73.54 72.76 72.72 72.79
55.70 56.56 52.43 46.14 35.82 30.10 34.40 43.61 43.94 46.80 50.88 53.03 53.15 51.61 50.51 51.15 61.33 64.05 66.41 69.79 70.15 70.51 71.01 71.55 71.97 72.54 72.92 73.32 73.45 73.07 73.86 74.11 74.17 74.25 74.22 74.21 74.21 74.08 73.88 73.46 73.46 74.06 74.49 74.22 73.82 73.47 73.15 72.50 71.83
55.11 55.86 44.72 40.20 35.18 33.44 34.66 43.39 45.83 48.39 50.56 49.76 49.17 51.46 52.01 54.95 62.06 64.63 68.93 69.88 69.75 69.18 70.59 71.27 71.28 71.91 72.57 72.65 72.86 73.21 73.30 73.35 73.65 73.73 74.20 74.09 74.17 74.02 73.80 72.92 73.23 74.09 73.90 73.21 72.95 72.78 72.75 71.70 70.89
52.03 49.67 47.59 36.58 34.71 38.79 41.96 44.67 47.05 47.31 49.18 49.55 48.07 48.13 54.96 61.79 62.44 66.48 69.43 70.35 69.13 69.04 70.70 69.90 70.41 71.26 72.24 72.46 72.49 72.89 72.97 72.48 72.63 72.94 73.91 73.97 73.94 73.81 73.11 72.47 73.31 73.13 72.56 71.95 72.14 72.49 71.58 70.40 70.24
47.22 45.17 38.29 34.29 37.02 40.86 45.10 46.85 47.93 47.47 48.06 50.72 49.99 49.06 51.70 59.81 67.01 67.64 67.19 69.08 68.56 69.30 69.36 69.78 69.61 70.86 71.77 72.41 72.43 72.51 72.53 72.20 72.41 72.70 72.96 73.32 73.25 72.99 72.42 71.79 71.81 71.52 71.18 71.65 71.70 71.28 70.53 69.44 69.25
41.99 43.96 34.39 35.64 38.84 43.79 46.26 47.59 47.93 48.33 48.67 49.49 48.93 49.22 50.16 58.44 63.94 65.38 66.23 69.39 70.54 69.21 69.08 69.60 70.80 70.97 71.08 71.41 71.57 71.59 71.82 71.88 71.25 72.17 72.55 72.91 72.24 71.59 71.52 71.51 71.02 70.34 69.89 70.28 69.89 69.77 69.62 69.27 68.65
42.03 39.06 35.81 36.52 39.72 43.05 46.50 49.07 47.17 47.25 47.31 46.68 51.41 48.74 50.75 59.83 62.84 65.53 66.09 69.39 70.56 70.55 68.67 68.60 69.21 70.50 70.21 69.78 70.07 70.26 70.85 70.57 70.54 71.71 71.73 71.74 70.73 70.42 70.75 70.70 70.24 69.77 68.98 68.80 68.53 68.61 68.53 68.84 68.60
46.19 43.37 39.65 40.22 40.44 41.50 47.88 49.66 49.15 46.83 45.70 53.09 48.99 46.28 45.54 57.47 62.84 64.52 66.17 67.55 69.14 70.31 68.85 68.12 68.24 68.40 67.88 67.83 69.09 69.70 69.93 69.46 70.17 71.38 70.62 69.77 69.67 69.89 69.91 69.54 69.51 69.18 68.66 68.60 68.62 68.24 67.66 68.26 67.72
48.37 42.24 39.81 41.24 42.17 44.27 49.53 47.15 48.97 49.96 47.15 48.77 49.75 48.62 57.48 61.00 62.72 61.87 62.93 66.15 67.94 69.89 69.38 68.72 68.37 68.13 67.31 67.36 68.75 69.74 70.28 69.69 69.37 69.44 68.78 67.36 68.53 68.46 68.51 67.88 68.57 68.39 67.46 67.82 67.98 67.74 67.74 67.49 67.00
41.59 39.33 41.62 45.64 46.68 46.15 48.11 44.99 47.00 47.40 46.93 48.55 48.32 51.64 54.53 58.13 60.06 60.11 60.04 64.32 66.65 67.43 69.33 69.48 68.89 68.57 68.46 69.35 67.77 67.04 69.12 68.96 67.97 68.28 67.32 67.54 67.43 67.05 67.22 67.30 67.49 67.31 66.82 66.91 67.53 67.54 66.53 66.73 66.47
41.32 39.11 43.48 46.14 49.12 48.16 46.55 46.40 47.49 46.92 45.73 47.81 48.68 49.03 50.57 53.19 54.39 58.59 60.25 62.32 66.83 68.53 69.63 69.23 69.11 68.84 68.50 67.55 67.38 67.72 67.56 67.74 67.61 67.47 66.69 66.76 67.25 66.78 65.75 65.68 66.13 65.68 66.71 65.91 65.80 66.00 66.08 65.91 65.13
40.10 44.43 45.12 45.97 47.57 47.03 45.91 46.21 46.71 46.22 47.59 50.49 49.72 50.11 50.40 50.84 50.83 51.63 55.03 56.41 62.97 67.51 68.97 69.39 68.87 68.21 67.70 66.98 67.83 67.34 67.72 67.11 66.97 66.71 66.96 65.63 66.23 65.83 65.51 64.78 63.95 63.27 64.36 64.04 64.61 64.92 64.82 65.38 65.82
42.95 44.84 46.57 47.04 47.38 47.23 47.42 45.99 45.65 45.70 47.30 48.56 49.60 50.27 49.28 50.21 50.07 50.51 52.29 55.32 56.69 66.14 68.20 69.12 68.49 68.04 68.35 67.14 67.67 67.25 67.65 67.38 67.45 67.25 66.91 65.90 65.88 65.50 65.62 64.47 64.36 63.93 63.63 63.35 63.46 63.89 64.09 63.87 65.19
43.33 43.41 43.72 44.28 44.22 44.51 44.50 43.37 44.00 46.26 47.23 47.47 48.50 48.55 49.54 49.42 49.59 49.40 49.54 51.34 52.76 56.29 67.45 69.23 68.34 67.88 68.55 67.92 66.13 65.90 67.83 67.29 66.55 66.62 66.33 65.75 65.54 65.25 64.84 64.45 64.64 64.01 63.96 63.75 63.31 63.55 63.35 62.59 64.01
45.06 40.65 42.31 42.54 42.74 43.25 44.91 41.79 42.91 46.65 47.21 47.05 47.54 48.01 48.78 50.03 50.93 49.86 50.31 50.14 51.82 53.89 63.35 68.42 68.48 68.35 68.43 68.05 66.11 65.49 65.72 66.51 65.62 65.83 65.88 65.64 65.25 64.51 64.01 63.59 63.57 64.12 64.09 63.08 62.76 62.39 62.29 62.11 63.51
40.03 39.47 34.34 40.58 42.43 43.63 41.44 36.45 43.45 46.13 45.24 44.84 46.40 47.19 48.18 48.76 50.02 50.65 51.00 51.38 51.43 52.70 54.66 68.02 69.14 68.12 67.79 67.22 66.11 65.34 64.82 64.81 64.73 64.58 64.81 64.92 65.06 64.68 63.43 62.90 62.53 64.23 63.32 62.42 61.81 61.43 61.06 61.06 61.35
36.10 31.40 33.74 37.37 42.49 41.99 39.89 37.49 42.24 44.10 44.79 44.46 44.45 44.37 45.38 47.30 48.33 49.59 50.72 51.46 52.62 52.02 52.36 66.96 68.28 67.11 67.04 66.55 65.59 64.84 64.39 64.53 64.54 63.88 63.66 64.16 64.48 64.46 63.27 62.69 62.72 63.60 63.00 61.76 61.25 60.95 61.31 60.59 60.85
30.62 32.01 32.54 33.31 37.24 39.13 37.51 37.06 41.53 43.84 44.55 43.40 42.96 44.12 45.51 47.04 47.95 50.27 50.54 51.93 52.90 53.68 52.52 66.61 67.19 66.95 67.17 66.57 65.40 64.86 64.22 63.20 63.39 63.64 63.27 63.97 64.56 63.55 62.96 62.57 62.41 62.97 62.66 62.24 61.27 60.28 60.93 60.79 60.84
36.20 34.83 33.52 36.26 39.91 37.92 37.38 37.62 39.74 41.55 42.12 42.61 43.36 44.23 45.89 45.82 48.15 49.55 50.94 52.07 53.40 54.46 53.21 66.06 66.27 66.34 66.43 65.74 64.89 63.79 62.92 63.02 62.28 62.94 64.11 63.99 63.77 62.59 62.13 62.19 61.69 62.83 61.98 61.26 60.93 60.78 60.36 60.06 60.92
36.95 34.56 33.60 36.98 40.02 37.84 36.51 36.54 39.79 41.35 42.18 44.29 45.04 45.63 45.84 46.28 48.38 50.00 50.90 51.89 52.63 53.85 55.16 65.75 66.17 66.63 66.46 66.14 65.44 64.01 62.68 60.75 61.20 62.79 63.65 63.58 62.64 62.10 62.05 62.16 62.57 62.07 61.00 60.76 61.55 61.12 59.77 59.78 60.99
36.96 34.95 34.23 34.86 37.11 37.77 36.12 34.47 37.28 42.27 44.17 45.97 47.04 47.06 48.24 46.65 47.55 49.52 51.01 51.94 52.51 52.41 57.63 65.39 66.06 66.24 65.95 65.05 63.31 62.05 61.02 60.30 58.77 59.44 60.76 62.85 64.19 62.58 62.06 62.61 62.60 62.39 62.26 61.57 61.33 60.80 59.62 58.04 59.77
33.93 39.66 39.21 38.08 34.83 28.47 35.00 27.13 35.78 40.82 42.75 45.32 46.65 47.51 45.61 50.93 52.99 50.83 49.84 51.22 51.44 53.20 63.89 65.71 65.97 65.69 65.22 64.44 63.46 61.12 60.43 59.00 58.90 59.39 60.49 62.01 63.11 63.24 62.49 62.51 62.10 62.09 61.57 61.28 61.54 60.98 59.51 58.73 57.40
37.30 41.63 39.27 37.24 33.24 32.49 33.78 30.13 34.77 41.10 40.63 42.58 48.32 50.05 49.60 50.94 52.60 52.84 54.54 55.47 53.49 56.46 65.11 65.62 65.14 65.28 64.86 63.51 62.60 60.93 59.24 58.36 59.47 58.99 59.53 60.63 60.85 62.19 62.36 62.10 60.61 61.61 61.69 61.51 61.72 60.59 59.55 59.13 57.98
42.10 38.87 38.38 35.34 32.50 26.19 32.66 31.59 31.77 35.75 39.77 46.10 49.35 49.97 50.73 51.04 52.07 53.34 54.70 55.32 55.78 55.84 62.56 65.22 64.35 64.46 64.27 63.05 62.36 61.25 59.63 58.44 58.82 58.06 58.20 59.51 61.24 61.57 61.12 62.02 61.83 61.04 61.25 61.16 61.26 61.30 60.06 59.15 59.06
37.87 33.31 23.93 22.40 22.75 23.89 35.95 33.00 34.61 42.31 46.46 47.70 47.99 48.95 49.50 50.56 50.53 50.57 50.75 51.25 52.78 53.44 54.69 62.94 63.66 63.22 63.47 62.84 62.31 62.14 61.07 58.91 57.95 57.51 58.60 57.65 57.68 57.43 57.70 58.23 58.65 59.74 61.13 60.91 61.11 60.97 60.44 59.42 58.72
35.28 33.67 26.57 20.22 21.08 25.97 36.48 29.92 35.31 44.58 44.40 46.67 49.87 48.91 49.28 48.92 48.09 47.30 48.31 48.97 49.33 54.87 56.32 60.30 62.46 62.75 62.06 62.17 61.51 61.94 61.55 58.59 58.74 58.84 58.42 56.54 56.36 57.55 57.47 57.02 57.61 58.61 58.49 59.99 60.56 60.43 60.34 59.77 59.02
35.08 32.19 38.18 31.33 31.67 26.90 30.62 35.58 41.39 43.14 42.59 42.96 46.30 45.94 45.59 46.05 45.21 44.68 45.33 46.35 46.57 49.36 58.56 59.42 60.61 61.68 61.65 61.21 61.34 61.82 61.01 58.88 58.87 58.37 58.59 57.93 57.92 57.00 56.68 56.94 57.19 57.65 58.31 59.25 59.55 59.64 59.64 59.86 59.06
37.68 39.49 28.66 31.35 25.34 22.23 29.30 31.49 34.29 39.91 40.37 43.74 43.55 43.23 43.64 44.05 42.97 42.13 42.54 43.17 44.16 46.74 52.14 59.24 60.16 59.62 61.24 61.55 61.42 61.30 59.89 59.42 58.87 58.71 57.68 57.98 58.78 58.29 57.49 56.64 56.62 57.05 57.45 57.95 58.43 58.01 58.85 58.87 58.78
36.76 34.16 35.94 35.24 31.52 24.04 24.84 31.45 40.81 39.30 41.00 43.38 42.74 42.73 41.51 41.28 40.01 39.80 39.98 40.78 41.32 43.53 46.41 50.06 58.42 59.50 59.38 60.33 60.77 59.89 58.94 59.85 58.98 58.37 58.37 57.78 58.77 57.06 57.11 56.89 56.32 56.38 56.70 57.07 56.89 57.47 57.63 57.11 57.58
39.00 36.32 35.05 28.39 28.03 32.10 29.58 30.91 41.12 41.65 42.94 45.18 42.33 41.54 40.33 39.15 38.25 37.91 37.72 38.49 38.70 39.73 41.95 44.11 47.40 57.31 57.50 59.93 59.23 59.20 58.83 58.64 58.95 59.66 59.96 59.95 58.97 58.65 57.88 56.98 56.20 55.77 56.50 56.56 56.06 56.14 56.44 57.14 57.23
MSLP
1011.39 1011.41 1011.84 1012.18 1012.99 1012.26 1011.39 1009.20 1006.69 1004.62 1003.73 1002.69 1001.47 1001.75 1002.33 1002.62 1003.22 1004.79 1005.16 1004.96 1005.47 1006.46 1006.92 1007.18 1007.22 1007.52 1008.07 1008.52 1008.93 1009.34 1009.70 1010.14 1010.67 1010.97 1011.17 1011.53 1011.84 1012.30 1012.76 1013.18 1013.48 1013.56 1013.80 1014.21 1014.58 1014.82 1015.01 1015.45 1015.89
1011.56 1011.59 1012.06 1012.20 1012.66 1012.39 1010.35 1007.93 1005.91 1004.14 1002.91 1002.01 1001.32 1001.35 1001.69 1002.35 1002.87 1004.20 1004.80 1005.21 1005.62 1006.43 1007.06 1007.35 1007.38 1007.66 1008.09 1008.57 1008.97 1009.33 1009.80 1010.21 1010.65 1011.03 1011.33 1011.67 1012.07 1012.43 1012.89 1013.27 1013.57 1013.81 1014.06 1014.43 1014.74 1015.11 1015.46 1015.88 1016.11
1011.62 1011.71 1012.33 1012.21 1011.94 1011.04 1009.31 1006.65 1004.56 1003.92 1002.61 1001.80 1001.57 1001.44 1001.64 1002.04 1002.88 1003.69 1004.11 1004.74 1005.50 1006.50 1007.02 1007.52 1007.56 1007.80 1008.20 1008.65 1009.00 1009.42 1009.83 1010.20 1010.77 1011.15 1011.43 1011.67 1012.10 1012.45 1012.85 1013.26 1013.66 1014.03 1014.23 1014.51 1014.75 1015.17 1015.83 1016.17 1016.43
1011.68 1012.15 1012.24 1011.40 1010.94 1009.21 1007.91 1005.69 1004.12 1003.79 1002.75 1001.65 1001.51 1001.73 1001.71 1001.65 1002.45 1003.41 1004.22 1004.75 1005.47 1006.34 1006.87 1007.56 1007.74 1008.04 1008.40 1008.77 1009.03 1009.39 1009.80 1010.21 1010.70 1011.22 1011.51 1011.73 1012.08 1012.44 1012.74 1013.28 1013.69 1013.99 1014.29 1014.77 1014.87 1015.35 1016.02 1016.37 1016.75
1011.56 1012.02 1012.26 1011.40 1009.84 1008.65 1007.16 1005.55 1003.91 1003.40 1002.64 1001.82 1001.55 1001.95 1002.22 1002.35 1002.26 1002.97 1003.78 1004.73 1005.45 1006.21 1006.86 1007.54 1007.97 1008.22 1008.51 1008.88 1009.13 1009.48 1009.86 1010.19 1010.61 1011.11 1011.53 1011.73 1012.11 1012.44 1012.75 1013.17 1013.49 1014.15 1014.54 1014.79 1015.01 1015.34 1016.03 1016.59 1016.96
1011.88 1011.43 1011.59 1011.01 1009.87 1008.04 1006.17 1004.47 1003.87 1002.78 1002.14 1001.71 1001.55 1001.74 1002.03 1002.11 1002.65 1003.15 1003.58 1004.65 1005.30 1006.14 1007.03 1007.57 1008.03 1008.36 1008.63 1008.87 1009.17 1009.49 1009.88 1010.24 1010.57 1010.97 1011.33 1011.67 1012.00 1012.42 1012.74 1013.15 1013.48 1014.08 1014.58 1014.87 1015.09 1015.29 1015.84 1016.39 1016.92
1011.24 1011.20 1010.69 1010.06 1009.06 1007.43 1005.62 1004.14 1003.72 1002.71 1001.83 1001.45 1001.22 1001.86 1002.24 1002.61 1002.70 1003.02 1003.45 1004.20 1005.06 1005.98 1006.98 1007.71 1008.07 1008.30 1008.56 1008.83 1009.01 1009.45 1009.87 1010.17 1010.53 1010.95 1011.29 1011.65 1011.95 1012.30 1012.64 1013.04 1013.59 1014.07 1014.43 1014.78 1015.06 1015.40 1015.07 1016.05 1016.73
1010.53 1010.72 1010.16 1009.71 1008.64 1006.56 1005.15 1003.76 1003.05 1002.55 1001.70 1001.24 1001.14 1001.93 1002.80 1003.13 1002.97 1003.27 1003.69 1004.29 1004.85 1005.75 1006.54 1007.55 1008.03 1008.28 1008.51 1008.92 1009.04 1009.17 1009.50 1009.94 1010.33 1010.77 1011.25 1011.70 1012.01 1012.19 1012.56 1012.89 1013.33 1013.90 1014.32 1014.77 1015.09 1015.53 1015.05 1014.69 1016.25
1009.75 1010.01 1009.17 1008.89 1007.79 1006.21 1005.17 1004.32 1002.90 1002.30 1001.59 1001.26 1001.52 1002.05 1002.69 1002.90 1003.23 1003.66 1004.33 1004.86 1005.08 1005.77 1006.28 1007.04 1007.82 1008.11 1008.45 1008.83 1009.02 1009.22 1009.32 1009.69 1010.10 1010.64 1011.11 1011.53 1011.86 1012.20 1012.43 1012.79 1013.20 1013.65 1014.17 1014.72 1015.17 1015.44 1015.32 1015.55 1015.84
1009.43 1008.72 1008.11 1007.75 1006.94 1006.09 1005.24 1004.81 1004.30 1003.31 1002.59 1002.21 1001.87 1001.95 1002.65 1003.02 1003.28 1003.89 1004.39 1005.06 1005.37 1005.77 1006.27 1006.70 1007.38 1007.92 1008.10 1008.47 1008.86 1009.18 1009.36 1009.59 1009.97 1010.38 1010.86 1011.30 1011.67 1011.99 1012.49 1012.80 1013.12 1013.60 1014.14 1014.59 1015.00 1015.35 1015.84 1016.11 1016.46
1008.56 1007.87 1007.82 1007.14 1006.30 1005.69 1005.34 1004.58 1004.13 1003.84 1003.28 1002.96 1002.95 1002.74 1002.67 1003.30 1003.48 1003.70 1003.96 1004.34 1004.84 1005.17 1005.70 1006.25 1006.94 1007.60 1007.81 1008.18 1008.59 1008.86 1009.28 1009.42 1009.70 1010.06 1010.57 1011.01 1011.51 1012.00 1012.59 1013.09 1013.48 1013.71 1014.20 1014.66 1015.04 1015.26 1015.51 1016.22 1016.44
1008.38 1007.60 1007.23 1006.52 1005.96 1005.31 1004.90 1004.61 1003.94 1003.78 1003.60 1003.09 1002.69 1002.94 1003.23 1003.09 1003.43 1003.69 1003.73 1003.64 1004.39 1004.74 1004.89 1005.38 1005.98 1006.83 1007.53 1007.84 1008.26 1008.44 1008.95 1009.05 1009.39 1009.80 1010.27 1010.73 1011.33 1011.88 1012.37 1013.15 1013.44 1013.69 1014.13 1014.43 1014.80 1015.02 1015.36 1015.77 1016.32
1007.57 1006.90 1006.25 1005.80 1005.39 1005.10 1004.60 1004.04 1003.90 1003.34 1003.28 1002.73 1002.71 1002.69 1002.89 1003.07 1003.12 1002.87 1003.19 1003.07 1003.04 1003.85 1004.29 1004.74 1005.32 1005.94 1006.64 1007.52 1007.94 1008.00 1008.45 1008.64 1008.87 1009.37 1009.83 1010.24 1010.98 1011.56 1012.16 1012.92 1013.23 1013.59 1013.94 1014.21 1014.63 1015.01 1015.34 1015.64 1015.97
1007.21 1006.77 1005.99 1005.32 1005.21 1004.79 1004.61 1004.02 1003.92 1003.33 1003.21 1002.83 1002.46 1002.41 1002.35 1002.51 1002.65 1002.48 1002.63 1002.92 1002.95 1002.88 1003.44 1003.98 1004.73 1005.38 1006.03 1006.72 1007.45 1007.64 1007.93 1008.09 1008.53 1009.00 1009.42 1009.91 1010.51 1011.07 1011.92 1012.65 1013.08 1013.29 1013.72 1014.15 1014.58 1014.87 1015.21 1015.49 1015.86
1007.07 1006.79 1006.11 1005.64 1005.40 1005.03 1004.80 1003.63 1003.60 1003.26 1003.04 1002.62 1002.42 1002.08 1001.78 1001.82 1001.73 1001.79 1001.76 1002.04 1002.24 1002.05 1002.43 1003.45 1004.12 1004.69 1005.38 1006.05 1006.77 1007.44 1007.56 1007.79 1008.46 1008.82 1009.07 1009.66 1010.21 1010.72 1011.46 1012.18 1012.61 1012.92 1013.35 1013.95 1014.47 1014.85 1015.05 1015.52 1015.77
1007.76 1007.35 1006.75 1006.01 1005.71 1005.10 1005.17 1003.26 1003.26 1002.82 1002.58 1002.22 1001.68 1001.44 1001.01 1000.81 1000.65 1000.63 1000.71 1001.07 1001.23 1001.47 1001.61 1002.38 1003.31 1003.95 1004.66 1005.40 1005.99 1006.99 1007.67 1007.92 1008.41 1008.74 1008.97 1009.42 1009.92 1010.36 1010.92 1011.77 1012.17 1012.40 1012.81 1013.49 1014.22 1014.66 1015.22 1015.60 1015.92
1008.46 1007.69 1007.21 1006.16 1005.65 1004.90 1004.81 1003.78 1002.69 1002.29 1002.15 1001.69 1001.49 1000.94 1000.69 1000.62 999.83 999.74 999.74 999.93 1000.19 1000.51 1000.87 1001.89 1002.77 1003.33 1004.12 1004.96 1005.56 1006.24 1007.23 1007.83 1008.30 1008.54 1008.92 1009.25 1009.63 1010.01 1010.61 1011.37 1011.76 1012.12 1012.78 1013.46 1014.06 1014.61 1014.79 1015.50 1015.97
1008.63 1007.94 1007.02 1006.25 1005.64 1005.07 1004.67 1003.94 1002.76 1002.23 1001.53 1001.16 1000.75 1000.46 1000.13 1000.03 999.70 999.31 999.23 999.12 999.22 999.49 999.92 1001.00 1002.11 1002.54 1003.33 1004.36 1005.37 1006.16 1007.01 1007.70 1008.27 1008.52 1008.81 1008.96 1009.20 1009.70 1010.27 1011.03 1011.57 1012.06 1012.80 1013.38 1013.95 1014.36 1014.83 1015.23 1015.38
1008.12 1007.74 1006.79 1005.91 1005.17 1005.14 1004.63 1004.12 1003.12 1002.31 1001.59 1000.64 999.96 999.82 999.36 999.28 998.95 998.85 998.63 998.59 998.44 998.54 999.27 1000.10 1001.53 1002.29 1002.80 1003.93 1004.91 1005.98 1006.77 1007.61 1008.16 1008.26 1008.19 1008.62 1009.04 1009.47 1010.07 1010.75 1011.33 1012.07 1012.67 1013.02 1013.53 1014.17 1014.60 1015.20 1015.54
1007.32 1007.06 1006.36 1005.39 1005.17 1005.30 1004.63 1003.65 1002.91 1002.09 1001.07 1000.05 999.51 999.02 998.54 998.39 998.29 998.26 998.09 997.93 997.95 997.92 998.39 999.46 1000.65 1001.67 1002.02 1002.97 1003.93 1004.95 1006.11 1007.27 1007.71 1008.02 1008.03 1008.64 1008.89 1009.38 1009.82 1010.39 1011.09 1011.65 1012.31 1012.81 1013.23 1013.63 1014.26 1014.99 1015.37
1006.17 1006.17 1005.85 1005.54 1005.25 1004.93 1004.78 1003.30 1002.56 1001.38 1000.30 999.50 998.40 997.75 997.19 997.54 997.71 997.78 997.70 997.25 997.38 997.58 997.99 998.94 999.84 1000.97 1001.59 1002.55 1003.63 1004.86 1005.87 1006.95 1007.64 1007.84 1008.05 1008.53 1008.53 1009.23 1009.57 1010.14 1010.73 1011.11 1011.56 1012.12 1012.68 1013.22 1013.73 1014.22 1014.92
1005.23 1005.54 1005.32 1005.39 1005.53 1005.40 1004.88 1003.06 1002.41 1001.38 1000.04 999.01 998.12 997.26 997.14 997.86 998.06 997.78 997.55 997.18 996.98 997.09 997.34 998.29 999.34 1000.20 1001.14 1001.98 1002.80 1003.70 1004.81 1006.19 1006.73 1007.25 1007.82 1008.33 1008.54 1009.06 1009.35 1009.91 1010.32 1010.75 1011.12 1011.62 1012.10 1012.65 1013.16 1013.60 1014.30
1004.46 1005.03 1005.43 1005.72 1005.93 1005.77 1005.14 1004.64 1001.67 1001.35 999.83 998.87 999.11 998.72 998.28 998.39 998.34 998.62 998.65 998.52 997.79 996.91 997.04 998.02 998.78 999.73 1000.56 1001.38 1002.13 1003.15 1004.49 1005.62 1006.43 1007.03 1007.72 1007.94 1008.42 1008.88 1009.17 1009.65 1010.05 1010.57 1011.01 1011.33 1011.66 1012.18 1012.78 1013.11 1013.54
1004.37 1004.95 1005.57 1006.07 1006.61 1006.15 1005.00 1004.98 1001.42 1001.35 1000.09 999.90 999.41 999.58 999.23 999.35 999.34 999.23 999.19 999.19 998.99 998.37 997.38 997.42 998.36 999.24 1000.16 1000.91 1001.65 1002.57 1003.91 1005.27 1006.13 1006.62 1007.42 1007.71 1008.22 1008.64 1008.93 1009.30 1009.74 1010.17 1010.48 1010.85 1011.08 1011.48 1012.03 1012.52 1013.15
1004.85 1005.77 1006.61 1007.12 1007.04 1005.55 1004.93 1004.20 1002.23 1001.56 1000.53 1000.04 1000.19 999.89 1000.63 1000.46 1000.63 1000.67 1000.50 1000.32 1000.13 999.76 998.55 998.14 998.11 999.20 999.83 1000.55 1001.38 1002.21 1003.56 1004.83 1005.69 1006.14 1007.07 1007.40 1007.99 1008.36 1008.64 1009.14 1009.51 1009.75 1009.91 1010.35 1010.70 1010.89 1011.28 1011.98 1012.52
1004.97 1006.20 1007.15 1006.93 1006.78 1005.92 1005.11 1003.72 1002.20 1001.86 1002.56 1002.72 1000.36 1000.71 1001.65 1001.67 1002.04 1002.26 1002.06 1001.81 1001.31 999.70 998.18 998.10 998.55 999.04 999.95 1000.79 1001.37 1002.04 1003.14 1004.32 1005.23 1005.68 1006.65 1007.14 1007.66 1007.81 1008.49 1009.11 1009.45 1009.56 1009.72 1009.76 1009.93 1010.07 1010.30 1011.15 1011.40
1005.10 1005.58 1006.43 1007.58 1007.18 1006.49 1004.81 1003.27 1002.52 1002.93 1002.83 1003.67 1001.51 1001.75 1002.73 1003.33 1003.85 1003.90 1003.40 1003.21 1002.46 1001.00 999.46 998.17 998.07 998.75 999.71 1000.38 1001.17 1002.02 1002.94 1003.79 1004.94 1005.51 1006.32 1006.81 1007.40 1008.02 1008.59 1008.90 1009.22 1009.25 1009.38 1009.43 1009.59 1009.49 1009.44 1010.42 1011.08
1005.43 1005.40 1006.96 1007.86 1007.54 1006.44 1004.41 1003.85 1004.27 1004.41 1004.62 1004.32 1003.39 1003.86 1004.89 1004.93 1005.09 1005.10 1004.96 1004.65 1003.87 1002.63 1001.33 999.74 999.06 999.32 999.86 1000.33 1001.32 1002.16 1003.01 1003.64 1004.74 1005.42 1006.25 1006.68 1007.32 1007.81 1008.27 1008.72 1009.03 1009.13 1009.11 1009.13 1009.22 1009.32 1009.48 1009.97 1010.50
1006.06 1005.98 1006.48 1007.05 1007.51 1006.72 1005.76 1005.30 1005.70 1005.73 1005.25 1005.05 1004.78 1005.33 1006.39 1006.54 1006.62 1006.64 1006.42 1006.19 1005.52 1004.39 1003.06 1002.03 1001.04 1001.07 1001.25 1000.82 1001.37 1002.32 1003.09 1003.61 1004.57 1005.44 1006.05 1006.52 1007.09 1007.64 1007.90 1008.47 1008.91 1009.04 1009.00 1009.11 1009.29 1009.33 1009.51 1009.78 1010.00
1007.75 1008.19 1008.85 1008.72 1007.48 1006.94 1006.76 1006.29 1006.50 1006.08 1005.64 1005.66 1006.55 1006.91 1007.95 1008.27 1008.41 1008.45 1007.91 1007.38 1006.93 1006.42 1005.24 1004.25 1003.38 1002.08 1001.77 1001.50 1002.15 1002.58 1003.35 1003.70 1004.48 1005.30 1005.79 1006.26 1006.97 1007.40 1007.64 1008.34 1008.74 1008.94 1009.05 1009.17 1009.40 1009.52 1009.42 1009.76 1010.36
Wind_Speed
4 3 0 4 4 3 4 9 14 18 7 5 4 8 6 5 4 4 4 12 17 13 10 11 14 16 15 15 14 14 13 13 12 12 12 12 13 13 12 11 11 12 15 15 14 14 12 15 15
3 4 1 2 4 1 7 14 20 14 4 2 6 5 7 1 7 11 7 13 14 13 9 9 13 15 15 14 14 13 13 14 13 12 12 12 12 13 12 12 11 11 13 15 15 14 14 15 14
3 3 2 5 4 8 7 11 15 9 3 3 2 2 4 2 7 3 15 17 16 12 10 9 13 13 14 13 13 12 12 13 13 12 12 13 13 13 13 12 11 10 12 15 14 14 15 13 12
4 3 4 2 10 11 17 15 17 11 4 3 3 2 4 7 6 8 14 17 15 13 11 11 11 11 12 12 12 12 12 12 13 12 12 12 12 13 13 12 12 13 12 10 12 16 13 12 11
0 2 3 5 14 9 16 18 19 16 7 6 6 2 2 3 16 17 14 15 13 10 10 11 11 11 12 11 12 11 12 12 12 12 11 11 11 12 11 12 13 11 8 11 12 13 15 12 10
1 3 2 12 13 17 15 17 15 15 8 5 6 6 3 4 11 11 12 15 14 13 10 10 11 11 10 11 11 11 11 11 13 12 12 11 11 10 10 11 11 12 14 11 10 13 13 10 9
4 2 6 7 11 18 18 12 5 8 11 6 6 6 5 8 7 9 11 16 15 14 12 8 7 9 11 10 11 12 12 11 13 10 10 11 9 10 11 12 12 16 15 14 14 13 18 13 11
4 4 9 8 13 20 17 13 7 6 5 2 3 4 2 4 6 8 8 10 15 14 13 11 8 7 6 6 10 12 12 11 13 9 9 8 9 10 11 10 19 18 16 13 12 12 17 20 14
4 9 13 14 16 18 17 15 10 6 3 0 2 4 6 9 7 4 6 5 8 10 12 12 10 8 7 7 7 10 12 12 10 10 9 6 4 6 9 12 17 18 16 14 11 8 8 9 13
6 9 16 10 15 16 16 8 12 11 7 5 2 5 6 7 8 8 6 7 8 9 10 11 10 9 9 8 7 6 7 7 6 6 6 4 6 6 7 11 16 16 15 14 11 10 6 7 4
7 14 10 13 17 15 16 17 7 12 8 4 2 7 7 6 7 10 9 9 13 14 10 13 11 8 9 6 6 5 4 5 5 7 6 5 5 5 5 5 6 6 12 7 8 7 6 4 4
14 16 19 19 20 21 19 9 14 8 7 9 8 5 4 9 8 9 10 10 11 13 15 15 14 11 8 4 6 7 6 6 5 5 8 5 5 7 7 6 6 4 4 7 7 5 6 7 6
15 15 16 16 18 20 14 18 14 12 11 10 12 13 10 9 9 7 9 10 10 14 16 17 15 14 12 6 6 6 7 7 7 7 7 6 7 7 6 6 7 7 5 6 6 6 7 7 7
12 13 12 7 9 6 9 7 7 9 9 14 15 17 15 12 11 8 7 10 9 9 17 18 17 15 13 10 7 5 7 7 5 6 6 7 6 6 6 7 8 8 7 6 7 8 8 5 4
8 13 11 8 8 11 11 19 17 13 11 18 18 17 17 14 16 13 11 10 10 10 13 19 19 17 16 15 8 5 5 6 5 5 7 7 7 7 7 5 6 8 8 8 7 5 4 4 2
6 7 8 4 9 12 10 26 20 17 17 21 23 20 22 20 17 15 13 11 10 9 8 20 17 18 16 12 10 6 5 5 5 4 4 7 7 7 5 5 5 7 6 6 6 6 5 4 3
5 10 12 15 13 15 11 22 12 10 11 11 8 8 7 11 12 11 12 12 13 10 8 19 18 19 16 13 10 9 7 5 5 5 4 7 7 7 6 5 5 7 6 6 6 5 7 5 6
6 9 9 10 7 5 9 10 14 14 18 9 8 11 12 12 10 8 10 12 14 15 9 18 16 19 16 11 8 7 6 4 4 5 5 7 6 7 7 6 7 7 6 6 6 8 5 5 5
15 16 17 11 8 12 16 14 15 12 15 15 14 15 17 14 12 11 10 10 15 17 10 19 17 17 14 11 11 9 9 7 5 5 7 6 6 6 8 6 7 7 8 9 9 7 9 5 5
16 18 12 9 8 8 15 20 13 14 13 17 19 19 21 17 15 17 16 11 10 17 11 19 19 19 16 11 10 8 9 4 4 4 5 6 7 7 8 8 8 10 7 7 8 9 5 3 8
15 10 9 13 7 9 12 21 16 17 20 22 25 24 25 15 16 17 16 14 8 10 11 19 21 20 16 12 9 8 7 5 3 4 4 5 8 9 9 9 8 9 8 8 10 10 10 7 7
15 7 11 12 9 9 3 16 11 14 21 20 19 10 5 7 10 7 11 9 8 9 14 19 20 20 14 16 13 14 10 8 4 5 5 7 8 8 8 8 8 9 7 9 10 10 10 7 10
14 8 13 5 9 8 8 11 12 15 18 17 7 5 7 7 10 11 11 12 12 5 16 19 20 19 17 16 15 11 8 5 6 5 9 8 8 10 10 9 8 8 6 8 11 13 12 9 10
5 7 6 5 5 13 15 12 16 11 12 2 5 7 10 11 13 13 13 14 13 12 8 20 21 19 18 17 15 15 13 9 8 7 6 6 7 7 7 8 8 9 9 10 9 13 13 11 10
2 2 4 4 4 13 5 7 13 11 1 6 4 10 8 11 14 15 16 16 15 14 11 11 20 17 18 17 13 15 15 12 11 8 8 9 6 3 6 4 4 5 9 11 11 12 13 14 12
7 7 7 7 6 8 5 7 5 4 8 23 12 12 10 14 15 15 16 16 17 18 12 11 15 15 14 13 11 12 13 6 7 9 7 6 4 6 6 5 6 6 6 6 10 9 12 13 14
6 11 6 10 13 8 8 10 6 6 11 20 13 17 15 14 14 14 17 16 19 20 14 4 13 13 14 11 11 12 9 10 8 9 8 7 6 5 7 6 5 5 5 8 10 8 9 13 14
3 5 2 2 5 6 6 11 4 13 4 10 14 15 13 13 15 15 15 18 18 18 16 11 9 6 10 12 7 8 8 8 10 9 8 8 8 8 8 7 5 5 4 5 6 4 8 12 13
8 5 4 4 5 3 4 2 5 8 10 12 13 16 14 15 15 15 15 15 16 17 18 16 8 9 6 7 8 10 9 11 10 8 8 6 8 8 9 8 7 5 4 4 4 4 8 8 11
8 10 5 4 5 2 4 3 5 3 15 8 13 15 12 13 13 13 15 16 17 16 17 16 16 3 3 6 7 7 9 10 9 8 8 9 9 9 9 8 7 5 4 5 4 4 4 12 10
Wind_Direction
174 208 175 1 44 92 244 249 240 278 285 277 76 77 144 193 91 174 165 108 117 133 145 146 137 137 143 145 147 148 145 144 145 146 144 141 136 131 128 125 128 133 132 135 133 133 135 122 115
215 217 332 257 129 245 260 240 256 268 195 87 54 57 47 50 108 126 109 131 119 127 142 147 140 138 141 145 150 150 153 151 151 154 152 148 142 139 139 139 142 139 140 144 140 133 118 121 118
351 309 78 161 201 208 236 248 257 295 213 106 95 92 135 69 68 138 131 132 122 134 143 151 144 144 144 148 148 153 157 154 155 162 161 157 156 157 153 155 150 147 154 155 151 133 126 122 124
153 353 309 195 248 248 232 268 284 305 301 108 101 44 61 139 112 138 131 129 130 144 137 145 142 144 145 150 151 155 157 156 158 167 164 168 165 165 165 159 155 163 169 157 139 133 125 124 127
75 282 223 238 247 267 266 257 265 274 237 196 131 205 70 56 124 134 138 132 128 117 129 142 144 145 146 151 148 150 156 159 160 166 167 167 171 175 172 166 168 169 148 132 147 139 134 136 136
294 172 204 226 260 264 259 261 266 273 249 164 126 133 190 131 129 147 132 122 124 122 124 137 144 146 149 147 145 146 153 163 177 170 169 171 179 180 172 168 167 128 110 120 119 128 121 135 157
201 273 233 256 269 278 273 272 249 273 286 229 153 163 211 45 110 144 136 130 130 128 126 134 147 153 155 155 151 151 158 166 176 173 167 171 183 183 178 174 146 135 130 130 137 143 140 157 171
188 253 258 253 250 262 272 292 290 301 251 332 75 131 256 178 104 108 122 131 131 134 137 148 154 154 152 157 160 156 157 163 172 161 157 174 180 183 179 157 147 147 148 154 156 173 162 154 160
230 233 243 247 251 271 281 289 316 283 257 279 142 86 154 147 103 81 106 100 125 134 146 150 156 162 164 166 170 162 157 159 152 147 161 173 175 172 150 153 154 156 156 157 169 177 161 150 154
195 236 235 241 267 274 286 324 312 322 320 318 24 324 133 149 149 158 183 169 151 153 150 152 155 170 167 171 166 160 157 155 151 155 164 170 158 151 152 155 156 153 157 161 166 140 144 134 166
252 248 263 264 256 264 292 297 308 319 309 287 301 269 281 183 188 171 194 172 178 174 160 163 155 172 167 164 168 162 169 161 164 161 163 168 149 148 133 139 149 157 158 164 157 152 152 160 184
247 243 242 248 255 267 270 276 286 283 266 288 289 247 242 279 205 215 199 195 170 185 173 169 168 159 174 160 174 170 169 170 166 169 171 153 150 154 147 154 171 157 157 161 168 175 162 165 191
253 250 253 248 245 249 255 271 264 268 292 289 298 299 290 271 256 235 212 205 206 185 184 173 171 174 172 177 185 176 175 171 168 167 168 149 162 161 153 167 170 168 172 163 168 171 178 188 178
260 275 275 287 301 292 292 275 300 283 277 268 270 271 269 259 245 248 217 226 221 197 186 171 175 176 174 177 189 182 162 161 151 158 166 159 159 163 178 164 174 178 182 178 181 181 179 180 165
297 296 291 302 302 294 306 287 271 273 262 270 265 261 257 251 239 227 228 208 216 232 180 173 175 174 177 183 153 153 147 150 142 152 159 161 163 172 171 170 171 180 177 166 166 152 133 136 182
334 301 279 269 259 269 250 268 262 256 247 253 255 254 247 247 226 222 213 215 214 222 189 174 176 175 173 164 151 143 149 140 151 154 160 167 169 171 167 156 157 166 158 145 153 153 145 151 149
258 256 273 275 247 248 236 260 266 239 262 259 266 282 285 273 236 222 209 207 214 214 195 178 169 173 172 153 152 146 155 160 160 161 178 178 175 169 155 159 153 149 145 155 156 170 165 168 187
232 249 251 262 268 320 290 285 307 299 267 263 273 283 281 280 271 259 229 216 209 223 187 174 174 175 163 147 145 142 150 150 163 178 186 178 165 161 146 151 142 145 150 158 164 169 168 166 154
254 266 273 280 307 330 297 296 289 288 287 284 274 260 263 263 269 271 259 218 214 219 184 169 171 172 154 159 158 157 169 168 185 179 169 171 154 146 143 148 145 155 166 175 169 160 162 161 141
245 251 261 284 292 270 291 288 284 286 278 277 269 263 252 239 244 263 254 235 211 216 173 165 168 170 168 166 160 159 153 162 165 168 140 167 155 150 146 153 167 166 161 157 167 167 160 162 162
257 262 256 263 264 265 274 274 283 275 275 277 270 255 247 225 225 233 244 237 210 217 165 166 167 170 166 149 133 126 121 119 136 169 159 183 153 162 164 170 172 167 162 170 170 171 175 166 162
252 267 285 290 278 271 228 287 270 283 282 277 274 337 280 61 35 309 246 222 215 219 170 162 164 160 157 152 156 155 163 166 171 167 170 180 166 172 172 182 180 182 180 176 181 180 179 164 174
256 241 268 294 302 315 288 276 276 278 273 275 26 39 69 60 62 28 18 13 344 193 160 159 159 162 160 159 159 148 155 143 146 157 168 171 181 188 186 187 176 180 185 198 190 183 184 183 179
283 297 288 312 288 268 270 252 275 253 268 124 67 22 28 36 31 23 14 2 3 344 188 163 163 163 164 161 153 160 159 161 165 163 176 164 175 176 176 188 190 192 189 196 191 187 186 183 185
323 325 321 299 218 257 237 277 257 337 334 144 66 60 25 33 32 16 7 357 344 329 318 198 160 159 166 165 158 159 162 167 173 162 165 148 155 139 156 170 179 196 198 198 200 198 190 182 176
203 216 193 234 236 271 313 248 259 89 344 333 96 71 45 34 27 15 1 356 343 333 299 158 164 155 163 161 158 151 158 159 162 149 150 142 158 140 145 184 209 211 221 219 205 211 187 184 184
231 219 200 274 294 289 259 277 320 35 38 332 69 56 35 27 24 10 0 0 349 344 354 155 153 142 151 156 145 151 152 143 148 135 144 149 137 143 163 168 193 200 210 211 209 214 179 179 182
243 179 135 193 254 235 249 259 61 19 101 258 57 55 33 25 16 11 5 0 352 347 349 20 74 66 143 136 139 143 142 128 133 134 142 148 158 156 158 165 178 194 183 174 187 185 182 185 179
293 313 282 167 234 267 308 71 28 47 326 337 69 62 37 23 19 7 4 3 358 354 359 4 15 115 241 131 115 136 132 132 128 140 155 157 153 161 162 167 173 181 153 145 149 172 172 166 179
275 233 285 261 241 246 287 300 352 300 268 220 76 64 47 32 25 12 7 3 7 1 357 0 352 319 36 97 120 128 143 134 140 144 164 160 160 166 159 158 164 159 148 145 137 130 139 178 182